Location: Strawberry
(45.6646°N, 111.9596°W)
Time: 20:13:06
(UTC+00:00)

Envisat - Pass Details

Date: 24 August 2022
Orbit: 764 x 765 km, 98.2° (Epoch: 27 September)

Event Time Altitude Azimuth Distance (km) Brightness Sun altitude
Rises 10:32:31 0° 31° (NNE) 3,241 7.6 -20.1°
Reaches altitude 10° 10:35:55 10° 55° (NE) 2,308 6.7 -19.6°
Maximum altitude 10:38:44 15° 88° (E) 1,989 5.8 -19.3°
Drops below altitude 10° 10:41:31 10° 122° (ESE) 2,297 5.7 -18.9°
Sets 10:44:52 0° 146° (SE) 3,217 6.2 -18.4°
